Location: Astronight Observatory
(42.6003°N, 71.2981°W)
Time: 18:05:12
(UTC-04:00)

Daily predictions for brighter satellites

Satellite Brightness Start Highest point End
(mag) Time Altitude Azimuth Time Altitude Azimuth Time Altitude Azimuth
Cosmos 968 Rocket 3.8 20:54:36 10° SSW 20:59:46 73° WNW 21:05:02 10° NNE
Cosmos 2219 4.1 20:55:03 10° SSE 20:59:54 29° ESE 21:04:45 10° NE
Cosmos 2266 Rocket 4.2 20:55:34 10° SSE 21:01:40 54° E 21:07:42 10° NNE
Cosmos 1553 Rocket 4.3 20:57:14 10° N 21:03:40 80° W 21:09:58 10° S
Cosmos 1726 4.2 21:03:31 10° NE 21:05:35 14° ENE 21:07:39 10° ESE
Cosmos 2237 Rocket 4.3 21:03:45 10° NNE 21:06:30 13° NE 21:09:14 10° ENE
Cosmos 2322 3.9 21:01:59 10° NNW 21:07:41 62° ENE 21:13:19 10° SE
Tiangong 1 2.9 21:06:46 10° S 21:08:20 13° SSE 21:09:53 10° ESE
Cosmos 1151 Rocket 3.1 21:05:36 10° N 21:09:52 60° E 21:14:09 10° SSE
SPOT 5 3.0 21:05:30 10° SSE 21:09:56 55° ENE 21:14:39 10° N
Cosmos 1441 Rocket 3.4 21:06:18 10° SSW 21:10:04 74° W 21:13:50 10° N
Cosmos 2322 Rocket 3.1 21:04:48 10° NW 21:10:08 46° WSW 21:15:27 10° S
Cosmos 2058 3.9 21:13:20 10° SSE 21:16:50 28° E 21:20:22 10° NNE
AVUM R/B 2.6 21:15:41 10° SSW 21:18:00 78° WNW 21:20:32 10° NNE
Cosmos 2360 Rocket 2.2 21:14:11 10° NNW 21:19:52 79° ENE 21:25:32 10° SSE
SL-16 R/B 3.4 21:15:36 10° NW 21:20:51 40° WSW 21:26:06 10° S
Envisat 3.1 21:17:37 10° SSE 21:22:42 87° WSW 21:27:49 10° NNW
PSLV R/B 3.1 21:22:13 10° SSE 21:25:14 68° ENE 21:28:17 10° N
ERS-1 Rocket 3.9 21:21:59 10° S 21:26:49 47° W 21:31:41 10° NNW
Cosmos 304 Rocket 3.8 21:22:03 10° NNW 21:26:54 81° ENE 21:31:32 11° SSE
Aureole 3 4.5 21:22:47 10° S 21:29:27 62° E 21:34:47 10° NNE
Cosmos 1437 2.8 21:26:19 10° S 21:29:33 64° E 21:32:49 10° NNE
MetOp-B 4.2 21:24:43 10° SSE 21:30:01 70° ENE 21:35:22 10° N
Cosmos 1908 3.6 21:26:35 10° NNW 21:30:28 66° W 21:34:20 10° S
Cosmos 2112 Rocket 4.0 21:27:55 10° NNW 21:33:10 75° ENE 21:37:55 13° SSE
Meteor 1-4 Rocket 4.3 21:30:31 10° NNE 21:33:20 20° ENE 21:35:26 13° ESE
H-2A R/B 3.0 21:29:41 10° S 21:34:04 49° W 21:38:29 10° NNW
Cosmos 1707 Rocket 4.1 21:30:52 10° N 21:35:01 42° ENE 21:38:20 15° SE
Cosmos 1666 Rocket 4.2 21:36:11 13° SSE 21:39:38 37° E 21:43:43 10° NNE
DELTA 2 R/B (1) 4.0 21:37:31 10° W 21:42:47 45° SSW 21:46:52 16° SE
NOSS 3-1 (C) 3.6 21:37:19 10° S 21:42:55 50° ESE 21:49:05 10° NE
Cosmos 1674 3.5 21:39:52 10° SSW 21:43:36 52° W 21:47:24 10° N
Nadezhda 2 Rocket 4.4 21:37:37 10° S 21:43:45 76° E 21:49:51 10° N
Cosmos 1626 4.4 21:45:56 10° E 21:46:35 11° E 21:47:35 10° ENE
Cosmos 2227 Rocket 3.7 21:45:19 15° SE 21:47:23 18° E 21:51:07 10° ENE
Cosmos 1300 2.7 21:50:32 10° N 21:54:22 68° E 21:56:54 20° SSE
Cosmos 2333 Rocket 3.4 21:52:02 10° N 21:57:11 32° NE 22:01:13 15° ESE
SL-16 R/B 4.3 21:55:58 10° N 21:59:16 15° NE 22:02:34 10° E
H-2A R/B 2.8 21:58:29 19° SE 22:01:59 42° ENE 22:07:04 10° N
Terra 2.7 22:00:09 19° ESE 22:02:55 35° ENE 22:07:13 10° N
YAOGAN 6 3.0 22:00:51 16° S 22:03:38 58° W 22:07:13 10° NNW
COSMOS 2428 2.7 22:03:25 10° NNW 22:09:08 86° WSW 22:13:00 21° SSE
Cosmos 1680 Rocket 4.4 22:04:58 10° NNW 22:09:57 44° WSW 22:14:22 13° S
CZ-4B R/B 3.7 22:06:24 10° NNE 22:11:42 78° WNW 22:16:53 10° SSW
SPOT 1/Viking Rocket 3.8 22:10:08 16° S 22:14:12 67° WSW 22:19:21 10° NNW
Cosmos 2297 Rocket 3.5 22:13:15 20° ESE 22:14:33 21° E 22:18:41 10° NE
Delta 2 Rocket 4.0 22:12:19 10° WSW 22:15:00 25° S 22:15:00 25° S
Cosmos 1455 3.4 22:13:43 10° NNE 22:17:02 28° ENE 22:18:08 24° ESE
OAO 2 Rocket 4.3 22:12:50 10° SW 22:17:15 27° SSE 22:18:12 25° SE
CZ-4 R/B 3.9 22:15:59 10° NNE 22:20:58 86° WNW 22:25:20 13° SSW
Cosmos 2219 Rocket 2.4 22:16:02 10° NNW 22:21:36 61° ENE 22:24:46 26° SE
Cosmos 2242 Rocket 3.5 22:17:16 10° N 22:21:46 80° E 22:24:09 27° SSE
ARGOS 3.4 22:18:17 19° S 22:22:16 69° WSW 22:27:40 10° NNW
Cosmos 1898 Rocket 3.4 22:19:08 11° SSW 22:24:12 83° ESE 22:29:26 10° NNE
Cosmos 1869 4.5 22:21:36 10° NNE 22:25:11 30° ENE 22:26:20 25° ESE
FALCON 9 R/B 4.1 22:00:05 10° WSW 22:27:42 59° S 22:33:42 17° ESE
CZ-4C R/B 2.9 22:26:40 36° S 22:27:59 85° WSW 22:31:28 10° NNW
Cosmos 2150 Rocket 4.1 22:23:05 10° SSW 22:28:33 89° NW 22:34:03 10° NNE
Cosmos 858 Rocket 4.4 22:25:57 13° SSW 22:30:41 86° ESE 22:35:56 10° NNE
BREEZE-M TANK 4.4 22:05:09 10° WSW 22:32:02 75° SSE 22:36:52 10° ENE
SAR-Lupe-2 3.9 22:31:51 39° SE 22:32:48 53° ENE 22:36:19 10° N
USA 245 4.4 22:32:07 17° SW 22:32:57 20° W 22:34:51 10° NW
Cosmos 1862 Rocket 4.0 22:29:25 10° N 22:33:37 47° ENE 22:35:04 33° SE
DELTA 2 DEB (DPAF) 4.2 22:31:49 28° S 22:34:10 75° WSW 22:38:40 10° NNW
SeaSat 1 4.1 22:32:39 14° E 22:35:43 23° NE 22:39:35 10° N
CARTOSAT-1 3.5 22:34:09 34° SSE 22:35:58 77° ENE 22:40:17 10° N
SL-08 RB Rocket 4.2 22:34:43 23° SSW 22:37:19 52° W 22:41:44 10° NNW
Sich 1 3.6 22:34:24 15° SSW 22:37:53 57° W 22:42:15 10° N
Cosmos 1980 3.9 22:33:07 10° NNW 22:38:44 61° ENE 22:41:31 29° SE
Cosmos 1633 Rocket 3.6 22:36:53 17° SSW 22:40:11 57° W 22:44:30 10° N
Cosmos 1726 3.3 22:37:37 10° NNW 22:41:09 38° W 22:43:05 22° SSW
Cosmos 2219 4.4 22:38:22 10° SW 22:43:50 43° WNW 22:49:19 10° NNE
Tiangong 1 2.9 22:41:27 10° WSW 22:42:38 20° SW 22:42:38 20° SW
DMSP B5D2-2 4.0 22:39:53 10° NNE 22:45:07 72° ESE 22:47:50 29° S
Lacrosse 4 Rocket 3.4 22:42:36 10° N 22:46:05 22° NE 22:48:18 16° E
NOSS 3-1 (A) 3.5 22:40:20 10° SW 22:46:15 80° NW 22:52:51 10° NE
Cosmos 1271 Rocket 3.3 22:46:32 10° NNW 22:50:15 49° W 22:51:39 32° SSW
Cosmos 2237 Rocket 2.3 22:45:55 10° NNW 22:51:38 71° ENE 22:54:11 34° SE
Cosmos 1703 3.7 22:50:01 27° SSW 22:51:54 57° W 22:55:46 10° N
Cosmos 2082 3.7 22:52:45 29° S 22:55:42 65° ESE 23:01:23 10° NNE
Cosmos 2360 Rocket 4.5 23:00:09 10° WNW 23:03:06 15° W 23:06:04 10° SW
COSMOS 2455 3.5 22:57:33 10° NNW 23:03:22 47° NE 23:06:26 26° ESE
Cosmos 1241 Rocket 4.3 22:59:19 19° SSW 23:03:53 77° ESE 23:10:09 10° NE
Meteor 1-4 Rocket 4.3 23:05:22 10° NW 23:08:32 26° W 23:09:49 21° SW
ATLAS 2AS CENTAUR R/B 3.0 23:03:26 21° SSW 23:08:39 65° ESE 23:16:35 10° NE
ERBS 3.1 23:12:02 42° ENE 23:12:02 42° ENE 23:14:31 10° NE
ALOS 2 4.4 23:10:58 18° E 23:12:09 20° ENE 23:15:23 10° NNE
H-2A R/B 4.4 23:10:52 10° NE 23:13:12 17° E 23:13:12 17° E
Nadezhda 1 Rocket 4.3 23:08:21 10° NNW 23:14:19 60° W 23:17:27 29° SSW
Cosmos 1933 3.3 23:16:20 10° N 23:20:23 64° E 23:20:45 60° ESE
Cosmos 1626 2.9 23:20:38 39° WSW 23:21:31 48° W 23:25:11 10° N
COS B Rocket 3.4 23:22:00 10° N 23:25:44 59° E 23:25:49 59° E
ATLAS 3B R/B 2.8 23:19:49 10° NNW 23:26:53 69° NE 23:30:03 33° SE
Cosmos 2227 Rocket 2.5 23:27:04 21° SW 23:30:50 65° WNW 23:36:30 10° NNE
Okean 1-7 3.4 23:27:35 10° N 23:31:44 48° ENE 23:32:05 46° E
Cosmos 1703 Rocket 3.4 23:30:05 10° N 23:34:28 86° E 23:35:00 69° SSE
Cosmos 1709 Rocket 3.9 23:32:45 37° SSW 23:35:20 82° W 23:41:30 10° N
Cosmos 2221 Rocket 3.5 23:35:01 10° N 23:39:36 89° WSW 23:40:13 66° S
Terra 3.4 23:39:02 21° SW 23:40:41 26° W 23:44:39 10° NW
H-2A R/B 3.7 23:39:07 19° SW 23:41:30 27° W 23:46:02 10° NW
Cosmos 2333 Rocket 3.0 23:36:11 10° NW 23:41:32 41° WSW 23:43:13 33° SW
Cosmos 44 Rocket 4.0 23:42:25 39° ESE 23:42:25 39° ESE 23:47:03 10° NE
NOSS 2-3 (E) 4.2 23:43:23 48° ESE 23:43:27 48° ESE 23:48:46 10° NE
SL-16 R/B 2.1 23:38:35 10° NNW 23:44:18 84° ENE 23:45:52 50° SSE
Cosmos 1269 Rocket 4.0 23:41:37 10° NNW 23:46:56 75° WSW 23:48:05 54° S
GEOS 3 Rocket 3.8 23:46:31 40° ESE 23:48:21 66° NE 23:53:30 10° NNW
CZ-4C R/B 4.2 23:44:41 10° NNW 23:50:49 33° NE 23:57:30 10° ESE
Cosmos 1455 4.2 23:49:51 10° NW 23:52:34 19° W 23:53:11 18° W
Cosmos 1900 4.2 23:48:38 10° NW 23:53:37 76° WSW 23:54:14 65° S
